sat.trackr.live / text

‹ back to catalog

ONEWEB-0096

NORAD 45439 · 2020-020R

PAYLOAD ACTIVE UNKNOWN

§ Identity

Operator
Country
UK
Launch date
2020-03-21
Launch site
TYMSC
Launch vehicle
Mass (kg)
RCS (m²)

Purposes: comms

External: N2YO · Heavens-Above · Gunter

§ Orbital elements

Epoch: 2026-05-25T02:11:46.798368Z

Period
109.80 min
Inclination
87.8921°
Eccentricity
0.0001872
Mean motion
13.11418335 rev/d
Perigee alt
1,216.3 km
Apogee alt
1,219.1 km
Semi-major
7,595.8 km
B*
-8.2831e-4
RAAN
25.6560°
Arg perigee
81.6291°
Mean anomaly
278.5049°
Rev number
29,963

§ Raw data

ONEWEB-00961 45439U 20020R   26145.09151387 -.00000281  00000+0 -82831-3 0  99982 45439  87.8921  25.6560 0001872  81.6291 278.5049 13.11418335299635

JSON: /api/v1/satellites/45439 · /tle

For live sub-satellite position, see the globe view (requires WebGL).

§ Visibility from observer

Set your observer location to see the next 7 days of passes ≥ 10°. The values pass through the URL so the page stays shareable.

No JS? Fill the form by hand. The geolocation button needs JavaScript.